[[{"header":{"parameterUnit":"m.s-1","parameterCategory":1,"la1":30.2991,"la2":30.254,"lo1":-89.0895,"lo2":-89.0444,"dy":0.0017,"dx":0.0017,"nx":28,"ny":28,"refTime":"2024-12-03T03:00:00:Z","depth":0,"parameterNumber":2,"parameterNumberName":"U-component_of_WINDS"},"data":[0,0,0,0,0,0,0,0,0,0,0,0,0,0,0,0,0,0,0,0,0,0,0,0,0,0,0,0,0,0,0,0,0,0,0,0,0,0,0,0,0,0,0,0,0,0,0,0,0,0,0,0,0,0,0,0,0,0,0.2563,0.2562,0,0.2473,0.2472,0.2471,0.2399,0.2398,0.2398,0.2397,0.2304,0.2302,0.2301,0,0,0,0,0,0,0,0,0,0,0,0,0,0.267,0.2668,0.2563,0.2562,0.2561,0.2474,0.2472,0.2471,0.2399,0.2398,0.2397,0.2397,0.2305,0.2303,0.23,0,0,0,0,0,0,0,0,0,0,0,0,0,0.2606,0.2668,0.2563,0.2515,0.2509,0.2474,0.2472,0.2471,0.2399,0.2398,0.2397,0.2396,0.2305,0.2303,0.23,0.2306,0,0,0.2292,0.2291,0,0,0,0,0,0,0,0,0.261,0.2602,0.2523,0.2518,0.2512,0.2446,0.2476,0.2415,0.24,0.2441,0.2397,0.2396,0.2352,0.2346,0.2331,0.2301,0.2297,0.2292,0.229,0.2289,0.2288,0,0,0,0,0,0,0,0.2614,0.2606,0.2528,0.2522,0.2515,0.2496,0.2486,0.2464,0.2404,0.2437,0.2432,0.2422,0.2349,0.2334,0.2329,0.2296,0.2292,0.2289,0.2288,0.2287,0.2264,0.2264,0,0,0,0,0,0,0.2627,0.261,0.253,0.2525,0.2559,0.2495,0.2484,0.2468,0.2404,0.2393,0.2423,0.2419,0.2339,0.2332,0.2325,0.2325,0.2289,0.2286,0.2285,0.2263,0.2264,0.2265,0,0,0,0,0,0,0.2629,0.262,0.2534,0.2566,0.2553,0.2495,0.2478,0.2467,0.2452,0.2393,0.2382,0.2419,0.2338,0.2329,0.231,0.2321,0.2285,0.2283,0.2261,0.2263,0.2264,0.2328,0,0,0,0,0,0,0.2633,0.2622,0.2624,0.2566,0.2552,0.2522,0.2479,0.2466,0.2448,0.2442,0.2386,0.2376,0.2336,0.2315,0.2308,0.2317,0.2281,0.226,0.2262,0.2264,0.2325,0.2331,0.2337,0,0,0,0,0,0.2637,0.2645,0.2624,0.2615,0.2554,0.2523,0.2514,0.2469,0.2449,0.245,0.2412,0.2378,0.2322,0.2314,0.2305,0.2314,0.2259,0.2262,0.2264,0.2322,0.233,0.2337,0,0,0,0,0,0,0.2705,0.2637,0.2613,0.2603,0.257,0.2511,0.2511,0.2479,0.245,0.2445,0.2389,0.2378,0.2365,0.2337,0.233,0.2314,0.2286,0.2286,0.2333,0.234,0.2346,0.2353,0.2279,0,0,0,0,0,0.2719,0.2701,0.2642,0.2639,0.2623,0.257,0.2555,0.2523,0.2485,0.247,0.2431,0.2395,0.2369,0.2353,0.2326,0.232,0.2306,0.2322,0.2328,0.2334,0.2335,0.2327,0.2333,0.2272,0.2272,0.2272,0,0,0.2748,0.2709,0.27,0.2652,0.2622,0.2603,0.2559,0.2541,0.2526,0.2467,0.2447,0.2417,0.2374,0.2361,0.2354,0.2338,0.2348,0.2336,0.2341,0.2339,0.233,0.2336,0.2341,0.2274,0.2273,0.2273,0,0,0.2791,0.276,0.2753,0.2724,0.2679,0.2643,0.2642,0.2587,0.2565,0.2544,0.2499,0.248,0.2437,0.2407,0.2387,0.2417,0.2383,0.2409,0.2442,0.2436,0.2441,0.2445,0.2454,0.2458,0.2411,0.2411,0.2411,0,0.2832,0.2802,0.2754,0.2738,0.2717,0.2664,0.2656,0.263,0.2578,0.2565,0.2548,0.2491,0.2458,0.2437,0.2444,0.243,0.2425,0.2415,0.2444,0.2448,0.245,0.2459,0.2462,0.2414,0.2414,0.2413,0.2413,0,0.2855,0.2835,0.2835,0.2786,0.2765,0.2754,0.2703,0.2687,0.2657,0.2622,0.2601,0.2559,0.2522,0.2515,0.2485,0.2489,0.248,0.2455,0.2425,0.246,0.2467,0.247,0.2419,0.2418,0.2417,0.2416,0,0,0.2938,0.2862,0.2863,0.2839,0.2785,0.2768,0.2754,0.2717,0.2705,0.2671,0.2656,0.262,0.2595,0.2572,0.2538,0.2532,0.2557,0.2507,0.2505,0.2516,0.2557,0.2576,0.2581,0.2535,0.2535,0.2536,0.256,0,0.2971,0.2942,0.2898,0.2883,0.2863,0.2811,0.2798,0.2763,0.2731,0.2708,0.2672,0.2646,0.2617,0.2602,0.2594,0.2556,0.2564,0.2553,0.2519,0.2519,0.2531,0.2584,0.2604,0.263,0.2563,0.2563,0.2563,0,0.3005,0.2974,0.2958,0.2904,0.2893,0.2883,0.2845,0.2825,0.2783,0.2759,0.2733,0.2696,0.2676,0.265,0.2621,0.2615,0.2598,0.2577,0.2577,0.2571,0.2543,0.2579,0.2637,0.264,0.2567,0.2567,0.2567,0,0.3066,0.302,0.3004,0.2985,0.2922,0.2916,0.2889,0.2846,0.2827,0.2794,0.278,0.2745,0.2726,0.2699,0.2653,0.2638,0.2629,0.2599,0.2608,0.2609,0.2608,0.2609,0.2663,0.26,0.26,0.2599,0.2599,0,0.3107,0.3099,0.303,0.302,0.3008,0.2957,0.2947,0.2915,0.2877,0.2859,0.2813,0.2797,0.2737,0.2714,0.2678,0.2659,0.2651,0.263,0.262,0.2634,0.2636,0.2621,0.2618,0.26,0.26,0.26,0.26,0,0.3172,0.3126,0.3105,0.3047,0.3032,0.3026,0.2976,0.2963,0.2928,0.2906,0.2897,0.2841,0.2811,0.2763,0.2719,0.2694,0.2681,0.2666,0.2696,0.2689,0.27,0.27,0.2747,0.2749,0.2686,0.2687,0.2687,0,0.3201,0.3193,0.3134,0.3119,0.3094,0.307,0.305,0.2998,0.2979,0.293,0.2924,0.289,0.286,0.2814,0.2769,0.2735,0.2717,0.2736,0.2712,0.2725,0.2716,0.2716,0.2715,0.2742,0.2742,0.2743,0.2744,0,0.3256,0.3233,0.3206,0.3171,0.3148,0.3117,0.3085,0.3075,0.3016,0.2996,0.2965,0.2942,0.2896,0.2863,0.2822,0.2793,0.2758,0.2752,0.2752,0.2765,0.2782,0.2771,0.271,0.2751,0.275,0.275,0.2749,0.2749,0.3302,0.3292,0.3249,0.322,0.319,0.316,0.3145,0.3108,0.3081,0.304,0.3011,0.2982,0.2939,0.288,0.2853,0.2828,0.2813,0.2813,0.2813,0.2814,0.2818,0.2787,0.2821,0.2821,0.282,0.282,0.282,0,0.3353,0.3323,0.3297,0.3252,0.3229,0.3199,0.3161,0.3143,0.3118,0.3081,0.3052,0.3016,0.2983,0.2935,0.2898,0.2887,0.287,0.2879,0.2879,0.2873,0.2835,0.2838,0.2894,0.2894,0.2894,0.2894,0.2894,0.2894,0.3377,0.3358,0.3331,0.3296,0.3265,0.3236,0.3216,0.3188,0.3158,0.312,0.3092,0.3061,0.3019,0.2979,0.2947,0.2934,0.2922,0.2936,0.2917,0.2882,0.2876,0.2869,0.2872,0.2934,0.2934,0.2957,0.2957,0.2957]},{"header":{"parameterUnit":"m.s-1","parameterCategory":1,"la1":30.2991,"la2":30.254,"lo1":-89.0895,"lo2":-89.0444,"dy":0.0017,"dx":0.0017,"nx":28,"ny":28,"refTime":"2024-12-03T03:00:00:Z","depth":0,"parameterNumber":3,"parameterNumberName":"V-component_of_WINDS"},"data":[0,0,0,0,0,0,0,0,0,0,0,0,0,0,0,0,0,0,0,0,0,0,0,0,0,0,0,0,0,0,0,0,0,0,0,0,0,0,0,0,0,0,0,0,0,0,0,0,0,0,0,0,0,0,0,0,0,0,6.1972,6.1973,0,6.2052,6.2053,6.2053,6.2005,6.2003,6.2,6.1998,6.2074,6.2078,6.2082,0,0,0,0,0,0,0,0,0,0,0,0,0,6.177,6.1774,6.1972,6.1973,6.1974,6.2052,6.2053,6.2054,6.2005,6.2003,6.2,6.1997,6.2072,6.2077,6.2082,0,0,0,0,0,0,0,0,0,0,0,0,0,6.1854,6.1775,6.1971,6.1959,6.1959,6.2051,6.2053,6.2054,6.2006,6.2003,6.1999,6.1996,6.2071,6.2077,6.2083,6.219,0,0,6.2102,6.2105,0,0,0,0,0,0,0,0,6.185,6.1862,6.196,6.196,6.196,6.2015,6.2009,6.2099,6.2007,6.1988,6.1998,6.1994,6.2057,6.2064,6.2086,6.2194,6.2197,6.2103,6.2106,6.2109,6.2111,0,0,0,0,0,0,0,6.1844,6.1858,6.2003,6.1961,6.1961,6.1947,6.1955,6.2026,6.204,6.1989,6.1986,6.1997,6.2056,6.208,6.2087,6.2198,6.2102,6.2108,6.2112,6.2114,6.2395,6.2399,0,0,0,0,0,0,6.184,6.1854,6.2,6.2005,6.1896,6.1954,6.1963,6.2001,6.2039,6.2042,6.1999,6.1994,6.2071,6.208,6.209,6.2216,6.2109,6.2115,6.2118,6.2391,6.2396,6.24,0,0,0,0,0,0,6.1836,6.1854,6.1997,6.1929,6.1946,6.1961,6.2004,6.2004,6.2028,6.2047,6.2049,6.2022,6.2069,6.2081,6.2166,6.2218,6.2118,6.2123,6.2387,6.2393,6.2398,6.2471,0,0,0,0,0,0,6.183,6.1852,6.1895,6.193,6.195,6.2074,6.2007,6.2008,6.204,6.2034,6.2069,6.2071,6.2067,6.2157,6.2172,6.2225,6.2128,6.2382,6.239,6.2396,6.2464,6.2479,6.2491,0,0,0,0,0,6.1823,6.1911,6.1897,6.1915,6.2004,6.2077,6.2088,6.2083,6.2045,6.2086,6.2098,6.207,6.2211,6.2166,6.2182,6.2238,6.2379,6.2388,6.2396,6.2458,6.2476,6.2491,0,0,0,0,0,0,6.188,6.1916,6.1901,6.2003,6.2038,6.2069,6.2121,6.2103,6.2147,6.2139,6.2129,6.2138,6.2225,6.224,6.219,6.2343,6.2288,6.23,6.233,6.2347,6.236,6.2354,6.2133,0,0,0,0,0,6.1905,6.1964,6.1991,6.2078,6.2097,6.2106,6.2138,6.2132,6.2166,6.218,6.2198,6.223,6.2281,6.2315,6.2363,6.2467,6.2472,6.2513,6.2527,6.2538,6.2548,6.2601,6.2619,6.2428,6.2428,6.2427,0,0,6.1956,6.1983,6.202,6.2091,6.2116,6.2175,6.2119,6.2183,6.2226,6.2189,6.227,6.2284,6.2319,6.2413,6.2455,6.2428,6.2602,6.2548,6.2557,6.2561,6.2612,6.263,6.2646,6.2433,6.2432,6.2431,0,0,6.2078,6.2106,6.2181,6.2209,6.2249,6.2255,6.2273,6.2308,6.2316,6.2398,6.2371,6.242,6.2509,6.2535,6.256,6.2692,6.2668,6.2708,6.2778,6.283,6.2846,6.2859,6.2904,6.2921,6.2718,6.2719,6.2719,0,6.2136,6.2226,6.2222,6.2289,6.232,6.2291,6.2365,6.2392,6.2445,6.2466,6.2436,6.2546,6.2568,6.2667,6.2699,6.2721,6.2739,6.2703,6.2844,6.2857,6.287,6.2913,6.293,6.2723,6.2723,6.2722,6.2722,0,6.2293,6.2356,6.2411,6.2466,6.2503,6.2574,6.2578,6.2616,6.2606,6.2614,6.2697,6.2722,6.2774,6.2798,6.2788,6.2895,6.2877,6.2846,6.279,6.2893,6.2933,6.2949,6.273,6.2728,6.2727,6.2726,0,0,6.2453,6.2505,6.2525,6.2549,6.2592,6.2639,6.2707,6.276,6.2792,6.283,6.2885,6.2961,6.2933,6.2961,6.2954,6.3,6.3101,6.2963,6.2964,6.2986,6.3218,6.324,6.3259,6.3086,6.3089,6.3092,6.3214,0,6.2577,6.2699,6.2697,6.2809,6.2865,6.2838,6.2897,6.2929,6.2938,6.2985,6.2994,6.3048,6.3007,6.3024,6.3069,6.308,6.3147,6.3071,6.3135,6.3137,6.3125,6.3281,6.3304,6.3419,6.323,6.3233,6.3235,0,6.2738,6.2783,6.2901,6.2935,6.2958,6.3012,6.306,6.3106,6.314,6.3144,6.3176,6.3161,6.3228,6.3172,6.3262,6.321,6.3236,6.3246,6.325,6.3254,6.3191,6.3287,6.3456,6.3472,6.326,6.3258,6.3256,0,6.2841,6.2931,6.3013,6.3034,6.3076,6.3114,6.3132,6.3163,6.3195,6.3236,6.3256,6.3304,6.333,6.3366,6.3364,6.3324,6.3455,6.34,6.3458,6.3458,6.3485,6.3483,6.3658,6.3505,6.3505,6.3505,6.3504,0,6.2978,6.3051,6.3059,6.3109,6.3189,6.3186,6.3264,6.3279,6.3306,6.3357,6.3336,6.3384,6.3379,6.3427,6.3425,6.3499,6.3511,6.3514,6.3512,6.3515,6.3515,6.3531,6.3522,6.3509,6.3508,6.3507,6.3506,0,6.3106,6.3115,6.3202,6.3235,6.3245,6.3302,6.3329,6.3375,6.3383,6.3447,6.3462,6.3473,6.3528,6.353,6.3592,6.3591,6.3681,6.3671,6.367,6.3668,6.3725,6.3719,6.3915,6.394,6.3772,6.3774,6.3775,0,6.3193,6.3248,6.3288,6.3321,6.3343,6.3397,6.3429,6.3427,6.3462,6.3505,6.3545,6.3598,6.3641,6.3729,6.3741,6.3788,6.3778,6.3844,6.3785,6.3785,6.3777,6.3773,6.3778,6.3854,6.3856,6.3858,6.3859,0,6.3345,6.3347,6.3396,6.3447,6.3487,6.3526,6.3562,6.359,6.3592,6.3631,6.3688,6.3721,6.3785,6.3837,6.3883,6.3899,6.3879,6.3878,6.3893,6.3896,6.3892,6.3893,6.37,6.3873,6.3871,6.387,6.387,6.3869,6.3453,6.3501,6.3536,6.3591,6.3619,6.3653,6.3698,6.3712,6.376,6.3814,6.3809,6.3871,6.3902,6.3962,6.3982,6.4029,6.4006,6.4029,6.4035,6.404,6.4046,6.3886,6.4038,6.4037,6.4037,6.4037,6.4036,0,6.3603,6.3625,6.3676,6.3728,6.3771,6.3751,6.379,6.3826,6.3882,6.3913,6.3956,6.402,6.407,6.4087,6.4135,6.4169,6.4161,6.4182,6.4178,6.4182,6.4064,6.4045,6.4188,6.4188,6.4188,6.4187,6.4187,6.4187,6.3686,6.3765,6.3771,6.3863,6.3883,6.3946,6.3969,6.4,6.4025,6.4098,6.4141,6.4152,6.4177,6.4227,6.4271,6.4275,6.4293,6.4317,6.4316,6.4206,6.419,6.4176,6.4158,6.4321,6.4322,6.443,6.4431,6.4432]}]]